Powrót do katalogu

STARLINK-2623

AktywnyŁącznośćVLEO
NORAD 48368·PAYLOAD·🇺🇸 United States

Wystrzelony May 4, 2021 z Cape Canaveral Space Force Station

Loading…

Następne Przeloty (najbliższe 24 godziny)

TLE

ŚwieżeSource: CelesTrak SupGP

Epoka: Sep 14, 2026, 21:59 UTC

1 48368C 21038R   26257.91645833 -.00022458  00000+0 -72223-3 0  2572
2 48368  53.1583 187.7512 0001349 101.7857 283.1842 15.31711175    14

Śledź STARLINK-2623 w czasie rzeczywistym z AllMySat

Download on the App Store